Miscellaneous Local Product
Issued by NWS Hastings, NE

Home | Current Version | Previous Version | Graphics & Text | Print | Product List | Glossary On
Versions: 1 2 3 4 5 6 7 8 9 10 11 12 13 14 15 16 17 18 19 20 21 22 23 24 25 26 27 28 29 30 31 32 33 34 35 36 37 38 39 40 41 42 43 44 45 46 47 48 49 50
784
AXUS43 KGID 250302
MISGRI

GID CWA HOURLY WEATHER ROUNDUP
NATIONAL WEATHER SERVICE HASTINGS NE
1000 PM CDT FRI MAR 24 2017

NOTE: "FAIR" INDICATES FEW OR NO CLOUDS BELOW 12,000 FEET WITH NO
SIGNIFICANT WEATHER AND/OR OBSTRUCTIONS TO VISIBILITY.

...SOUTH CENTRAL NEBRASKA...

CITY           SKY/WX    TMP DP  RH WIND       PRES   REMARKS
GRAND ISLAND   CLOUDY    40  40 100 N15       30.05R WCI  32
HASTINGS       CLOUDY    40  37  89 NE18      30.04S WCI  31
KEARNEY        CLOUDY    41  36  81 N16       30.05R
ORD            CLOUDY    42  38  85 N12       30.07R
YORK           CLOUDY    39  39 100 N20       30.04R WCI  30
AURORA         CLOUDY    40  38  95 N20G25    30.04R WCI  30
LEXINGTON      LGT RAIN  42  39  88 N22       30.05S
HOLDREGE       CLOUDY    40  38  92 N16       30.05R WCI  32
HEBRON         LGT RAIN  41  39  92 N13G20    30.01R

...NEBRASKA PANHANDLE...

CITY           SKY/WX    TMP DP  RH WIND       PRES   REMARKS
CHADRON        CLEAR     43  31  62 S9        30.09R
ALLIANCE       CLEAR     35  26  69 CALM      30.11R
SCOTTSBLUFF    CLEAR     39  28  64 SE6       30.11R WCI  35
SIDNEY         CLEAR     36  26  67 E6        30.13R WCI  31

...WESTERN AND NORTH CENTRAL NEBRASKA...

CITY           SKY/WX    TMP DP  RH WIND       PRES   REMARKS
VALENTINE      CLEAR     38  28  67 E5        30.12S WCI  34
AINSWORTH      CLEAR     34  31  88 CALM      30.12R
ONEILL         CLOUDY    40  38  92 N7        30.11S
BROKEN BOW     CLOUDY    43  38  82 N13       30.07S
IMPERIAL       CLOUDY    44  37  76 NW7       30.10S
NORTH PLATTE   CLOUDY    45  37  73 N8        30.09S
MCCOOK         LGT RAIN  41  41 100 NE9       30.06F

...EASTERN NEBRASKA...

CITY           SKY/WX    TMP DP  RH WIND       PRES   REMARKS
NORFOLK        LGT RAIN  40  37  89 N16G23    30.06R FOG     WCI  31
SO SIOUX CITY  LGT RAIN  41  40  96 NE13      30.07R
TEKAMAH        LGT RAIN  42  39  89 N17       30.03S
COLUMBUS       CLOUDY    41  37  87 N15       30.04S
ALBION         LGT RAIN  41  38  87 N10       30.07R
OMAHA EPPLEY   RAIN      43  38  82 N13G23    30.00R
OFFUTT AFB     RAIN      42  40  90 N15G22    30.00R
MILLARD        RAIN      44  42  91 N7        30.01R
LINCOLN        CLOUDY    43  40  89 N15       30.03R
NEBRASKA CITY  LGT RAIN  42  42  99 N15G22    29.96R
BEATRICE       CLOUDY    44  41  89 N17G23    29.98R
FALLS CITY     LGT RAIN  47 N/A N/A N16       29.89R

...NORTHERN KANSAS...

CITY           SKY/WX    TMP DP  RH WIND       PRES   REMARKS
GOODLAND       CLOUDY    38  37  97 N16       30.07R WCI  29
HILL CITY      CLOUDY    43  40  89 N17G26    30.04R
NORTON         CLOUDY    39  34  81 N17       30.05R WCI  30
PHILLIPSBURG   CLOUDY    43  39  87 N14G22    30.03S
HAYS             N/A     41  39  93 N20G25    29.99S
RUSSELL        CLOUDY    42  38  85 N20       29.97R
CONCORDIA      CLOUDY    43  40  89 N16G25    29.96R
SALINA         CLOUDY    48  44  86 N22G29    29.92R
TOPEKA         CLOUDY    54  53  97 W9        29.83F THUNDER



USA.gov is the U.S. government's official web portal to all federal, state and local government web resources and services.